Oklahoma City, OK

8:23 AM CST on February 23, 2017 (GMT -0600)
Tinker Air Force Base

Weather History for KTIK - May, 2013

Change the Weather History Date:

Thursday, May 16, 2013

  Actual Average Record
Temperature  
Mean Temperature 66 °F -  
Max Temperature 73 °F 76 °F 86 °F (2001)
Min Temperature 60 °F 57 °F 45 °F (2011)
Cooling Degree Days 1    
Growing Degree Days 16 (Base 50)    
Moisture  
Dew Point 62 °F    
Average Humidity 96    
Maximum Humidity 100    
Minimum Humidity 73    
Precipitation  
Precipitation 0.10 in - - ()
Sea Level Pressure  
Sea Level Pressure 29.82 in    
Wind  
Wind Speed 6 mph (SE)    
Max Wind Speed 9 mph    
Max Gust Speed -    
Visibility 10 miles    
Events Rain    
Averages and records for this station are not official NWS values.
T = Trace of Precipitation, MM = Missing Value Source: NWS Daily Summary

Daily Weather History Graph

Daily Weather History Graph

Search for Another Location

Airport or City:

Trip Planner

Search our weather history database for the weather conditions in past years. The results will help you decide how hot, cold, wet, or windy it might be!

Date:

Astronomy

May. 16, 2013 Rise Set
Actual Time 6:24 AM CDT 8:28 PM CDT
Civil Twilight 5:55 AM CDT 8:56 PM CDT
Nautical Twilight 5:21 AM CDT 9:31 PM CDT
Astronomical Twilight 4:44 AM CDT 10:08 PM CDT
Moon 11:54 AM CDT (5/16) 12:53 AM CDT (5/16)
Length of Visible Light 15h 00m
Length of Day
14h 04m
Waxing Crescent, 36% of the Moon is Illuminated
May 16
Waxing Crescent
May 17
First Quarter
May 24
Full
May 31
Last Quarter
Jun 8
New

Hourly Weather History & Observations

Time (CDT) Temp. Dew Point Humidity Pressure Visibility Wind Dir Wind Speed Gust Speed Precip Events Conditions
12:05 AM 60.8 °F 60.8 °F 100% 29.82 in 10.0 mi South 6.9 mph - N/A   Partly Cloudy
12:06 AM 60.8 °F 60.8 °F 100% 29.82 in 10.0 mi South 8.1 mph - N/A   Light Drizzle
12:23 AM 60.8 °F 60.8 °F 100% 29.81 in 10.0 mi South 5.8 mph - N/A   Light Drizzle
12:38 AM 60.8 °F 60.8 °F 100% 29.81 in 9.0 mi South 5.8 mph - N/A Rain Light Rain
12:43 AM 60.8 °F 60.8 °F 100% 29.81 in 9.0 mi SSE 5.8 mph - N/A Rain Light Rain
12:48 AM 60.8 °F 60.8 °F 100% 29.81 in 10.0 mi Variable 4.6 mph - N/A Rain Light Rain
12:53 AM 60.8 °F 60.8 °F 100% 29.81 in 10.0 mi SSE 6.9 mph - N/A Rain Light Rain
12:58 AM 60.8 °F 60.8 °F 100% 29.81 in 10.0 mi SSE 9.2 mph - 0.01 in Rain Light Rain
1:13 AM 60.8 °F 60.8 °F 100% 29.81 in 10.0 mi SE 5.8 mph - N/A   Light Drizzle
1:14 AM 60.8 °F 60.8 °F 100% 29.81 in 10.0 mi SE 5.8 mph - N/A Rain Light Rain
1:49 AM 60.8 °F 60.8 °F 100% 29.81 in 10.0 mi Variable 4.6 mph - N/A Rain Light Rain
1:58 AM 60.6 °F 60.6 °F 100% 29.81 in 10.0 mi SE 4.6 mph - 0.02 in Rain Light Rain
2:23 AM 60.8 °F 60.8 °F 100% 29.80 in 10.0 mi SE 4.6 mph - N/A   Light Drizzle
2:32 AM 60.8 °F 60.8 °F 100% 29.80 in 10.0 mi SE 6.9 mph - N/A   Light Drizzle
2:47 AM 60.8 °F 60.8 °F 100% 29.79 in 10.0 mi SE 6.9 mph - N/A   Clear
2:58 AM 60.3 °F 60.3 °F 100% 29.79 in 10.0 mi ESE 5.8 mph - 0.02 in   Clear
3:05 AM 60.8 °F 60.8 °F 100% 29.79 in 10.0 mi East 4.6 mph - N/A   Light Drizzle
3:14 AM 60.8 °F 60.8 °F 100% 29.79 in 10.0 mi East 3.5 mph - N/A   Overcast
3:20 AM 60.8 °F 60.8 °F 100% 29.79 in 10.0 mi ESE 3.5 mph - N/A   Light Drizzle
3:54 AM 60.8 °F 60.8 °F 100% 29.80 in 10.0 mi Variable 4.6 mph - N/A   Light Drizzle
3:58 AM 60.8 °F 60.8 °F 100% 29.80 in 10.0 mi SSE 5.8 mph - N/A Rain Light Rain
3:59 AM 60.4 °F 60.4 °F 100% 29.80 in 10.0 mi SSE 4.6 mph - 0.01 in Rain Light Rain
4:20 AM 60.8 °F 60.8 °F 100% 29.80 in 10.0 mi SSE 5.8 mph - N/A   Light Drizzle
4:32 AM 60.8 °F 60.8 °F 100% 29.80 in 10.0 mi SSW 3.5 mph - N/A Rain Light Rain
4:33 AM 60.8 °F 60.8 °F 100% 29.80 in 10.0 mi SSW 3.5 mph - N/A Rain Light Rain
4:38 AM 60.8 °F 60.8 °F 100% 29.80 in 10.0 mi South 3.5 mph - N/A Rain Light Rain
4:43 AM 60.8 °F 60.8 °F 100% 29.80 in 10.0 mi South 3.5 mph - N/A Rain Light Rain
4:48 AM 60.8 °F 60.8 °F 100% 29.80 in 10.0 mi SSW 2.3 mph - N/A   Light Drizzle
4:53 AM 60.8 °F 60.8 °F 100% 29.80 in 10.0 mi SSW 1.2 mph - N/A   Mostly Cloudy
4:57 AM 60.8 °F 60.8 °F 100% 29.80 in 10.0 mi Calm Calm - N/A   Mostly Cloudy
4:58 AM 60.3 °F 60.3 °F 100% 29.80 in 10.0 mi Calm Calm - 0.01 in   Mostly Cloudy
5:13 AM 60.8 °F 60.8 °F 100% 29.80 in 10.0 mi SW 4.6 mph - N/A   Overcast
5:37 AM 60.8 °F 60.8 °F 100% 29.81 in 10.0 mi NW 3.5 mph - N/A   Light Drizzle
5:58 AM 60.6 °F 60.6 °F 100% 29.81 in 10.0 mi East 2.3 mph - 0.01 in   Light Drizzle
6:23 AM 60.8 °F 60.8 °F 100% 29.82 in 10.0 mi ENE 3.5 mph - N/A Rain Light Rain
6:28 AM 60.8 °F 60.8 °F 100% 29.83 in 10.0 mi ENE 3.5 mph - N/A Rain Light Rain
6:42 AM 60.8 °F 60.8 °F 100% 29.82 in 10.0 mi NE 4.6 mph - N/A   Overcast
6:58 AM 60.4 °F 60.4 °F 100% 29.83 in 10.0 mi NE 4.6 mph - 0.02 in   Mostly Cloudy
7:09 AM 60.8 °F 60.8 °F 100% 29.83 in 10.0 mi NE 3.5 mph - N/A Rain Light Rain
7:14 AM 60.8 °F 60.8 °F 100% 29.83 in 10.0 mi NE 3.5 mph - N/A   Light Drizzle
7:22 AM 60.8 °F 60.8 °F 100% 29.82 in 10.0 mi NE 4.6 mph - N/A   Mostly Cloudy
7:58 AM 61.0 °F 61.0 °F 100% 29.84 in 10.0 mi NE 5.8 mph - 0.00 in   Mostly Cloudy
8:55 AM 61.9 °F 61.9 °F 100% 29.83 in 10.0 mi East 8.1 mph - N/A   Overcast
9:35 AM 62.6 °F 62.6 °F 100% 29.84 in 10.0 mi ENE 6.9 mph - N/A   Overcast
9:55 AM 63.7 °F 63.7 °F 100% 29.83 in 10.0 mi ENE 6.9 mph - N/A   Mostly Cloudy
10:00 AM 64.4 °F 64.4 °F 100% 29.83 in 10.0 mi East 8.1 mph - N/A   Mostly Cloudy
10:19 AM 62.6 °F 62.6 °F 100% 29.84 in 10.0 mi East 6.9 mph - N/A   Mostly Cloudy
10:55 AM 64.4 °F 63.7 °F 98% 29.85 in 10.0 mi ENE 6.9 mph - N/A   Overcast
11:12 AM 64.4 °F 62.6 °F 94% 29.85 in 10.0 mi East 8.1 mph - N/A   Overcast
11:55 AM 67.5 °F 63.1 °F 86% 29.85 in 10.0 mi East 9.2 mph - N/A   Mostly Cloudy
12:08 PM 68.0 °F 62.6 °F 83% 29.84 in 10.0 mi Variable 5.8 mph - N/A   Mostly Cloudy
12:37 PM 68.0 °F 62.6 °F 83% 29.84 in 10.0 mi SE 8.1 mph - N/A   Mostly Cloudy
12:55 PM 68.5 °F 62.6 °F 81% 29.83 in 10.0 mi ESE 8.1 mph - N/A   Mostly Cloudy
1:55 PM 69.8 °F 62.6 °F 78% 29.83 in 10.0 mi East 6.9 mph - N/A   Mostly Cloudy
2:55 PM 69.3 °F 62.6 °F 79% 29.83 in 10.0 mi ESE 6.9 mph - N/A   Overcast
3:04 PM 69.8 °F 62.6 °F 78% 29.82 in 10.0 mi ESE 6.9 mph - N/A   Mostly Cloudy
3:55 PM 68.9 °F 63.5 °F 83% 29.82 in 10.0 mi SSE 5.8 mph - N/A   Mostly Cloudy
4:04 PM 69.8 °F 64.4 °F 83% 29.84 in 10.0 mi South 6.9 mph - N/A   Mostly Cloudy
4:58 PM 71.8 °F 63.7 °F 76% 29.82 in 10.0 mi East 4.6 mph - N/A   Overcast
5:58 PM 72.3 °F 63.5 °F 74% 29.81 in 10.0 mi ESE 8.1 mph - N/A   Scattered Clouds
6:58 PM 71.6 °F 62.6 °F 73% 29.80 in 10.0 mi Variable 3.5 mph - N/A   Clear
7:58 PM 69.6 °F 63.7 °F 81% 29.81 in 10.0 mi South 8.1 mph - N/A   Clear
8:58 PM 65.5 °F 63.1 °F 92% 29.83 in 10.0 mi SSE 5.8 mph - N/A   Clear
9:58 PM 63.5 °F 62.6 °F 97% 29.85 in 10.0 mi South 6.9 mph - N/A   Clear
10:58 PM 62.8 °F 62.8 °F 100% 29.85 in 10.0 mi SE 5.8 mph - N/A   Clear
11:37 PM 62.6 °F 62.6 °F 100% 29.85 in 10.0 mi SSE 6.9 mph - N/A   Mostly Cloudy
11:58 PM 62.8 °F 62.8 °F 100% 29.85 in 10.0 mi SSE 4.6 mph - N/A   Scattered Clouds